Temperature
16 17 17 17 18 18 17 16 15 15 16 16 16 16 16 17 17 16 16 16 16 16 15 15 15 14 14 14 14 14 13 13 13 13 13 13 13 13 13 13 13 12 12 12
16 17 17 17 17 17 17 17 16 16 16 16 17 16 16 16 16 15 15 16 15 15 15 15 15 14 14 14 13 13 13 13 13 13 13 13 12 12 12 12 12 12 12 12
14 15 16 16 16 17 17 16 16 16 16 16 15 15 15 16 16 15 15 15 15 15 15 15 14 14 14 13 13 13 13 13 12 12 12 12 12 12 12 12 12 12 12 12
12 14 15 15 16 17 16 16 16 16 16 16 16 16 16 16 16 15 15 15 15 15 14 14 14 14 13 13 13 12 12 12 12 12 12 12 12 11 11 11 11 11 11 11
12 13 14 15 16 16 16 15 15 15 15 15 16 15 15 16 16 16 15 15 15 15 14 14 14 13 13 13 12 12 12 12 11 11 11 11 11 11 11 11 11 11 11 11
12 13 13 15 16 17 16 14 15 15 14 15 14 12 13 15 15 15 15 15 14 14 14 13 13 13 13 12 12 12 11 11 11 11 11 11 11 11 10 10 10 10 10 10
11 12 13 14 15 16 14 14 15 15 15 15 14 14 15 15 15 15 14 14 14 13 13 13 13 12 12 12 11 11 11 11 11 10 10 10 10 10 10 10 9 9 9 9
11 11 13 14 14 14 14 15 15 15 15 15 15 15 15 15 14 14 14 13 13 13 13 12 12 12 12 11 11 11 11 10 10 10 10 10 10 10 9 9 9 9 9 9
11 12 13 15 15 16 16 15 15 15 15 15 14 14 14 14 14 13 13 13 13 12 12 12 12 11 11 11 11 10 10 10 10 10 10 9 9 9 9 9 9 9 9 9
11 12 13 14 15 15 15 15 15 15 15 14 14 14 13 13 13 13 12 12 12 12 12 11 11 11 11 10 10 10 10 10 9 9 9 9 9 9 9 8 8 8 8 8
11 11 13 14 14 14 14 14 14 14 14 14 13 13 13 12 12 12 12 12 11 11 11 11 10 10 10 10 10 9 9 9 9 9 9 9 9 8 8 8 8 8 8 8
11 12 11 13 14 14 14 14 14 14 13 13 13 12 12 12 11 11 11 11 11 10 10 10 10 10 9 9 9 9 9 9 8 8 8 8 8 8 8 8 8 8 7 7
14 14 13 13 13 13 13 13 13 13 13 12 12 12 12 11 11 11 10 10 10 10 10 9 9 9 9 9 8 8 8 8 8 8 8 7 8 7 7 7 7 7 7 7
13 13 13 13 13 13 13 13 13 12 12 12 12 11 11 11 10 10 10 10 9 9 9 9 9 8 8 8 8 8 8 8 7 7 7 7 7 7 7 7 7 7 7 7
13 13 12 12 12 12 12 12 12 12 12 11 11 11 11 10 10 10 9 9 9 9 8 8 8 8 8 8 8 8 7 7 7 7 7 7 7 7 7 6 6 7 7 7
12 12 12 12 12 12 12 12 11 11 11 11 11 11 10 10 10 9 9 9 8 8 8 8 8 8 7 7 7 7 7 7 7 7 6 6 6 6 6 6 6 6 6 6
11 11 11 11 11 11 11 11 11 11 11 11 10 10 10 9 9 9 9 8 8 8 8 7 7 7 7 7 7 7 7 6 6 6 6 6 6 6 6 6 6 6 6 6
11 11 11 11 11 11 10 10 11 11 10 10 10 10 9 9 9 8 8 8 8 7 7 7 7 7 7 6 6 6 6 6 6 6 5 5 5 5 5 5 5 5 5 5
10 11 11 11 11 10 10 10 10 10 10 10 9 9 9 9 8 8 8 8 7 7 7 7 6 6 6 6 6 6 6 5 5 5 5 5 5 5 5 5 5 5 5 5
10 10 10 10 10 10 10 10 10 10 9 9 9 9 9 8 8 8 7 7 7 7 7 6 6 6 6 6 6 5 5 5 5 5 5 4 4 4 4 4 4 4 4 4
9 9 9 9 9 9 9 9 9 9 9 9 9 8 8 8 8 7 7 7 7 6 6 6 6 6 6 5 5 5 5 5 4 4 4 4 4 4 4 4 4 4 4 4
9 9 9 9 9 9 9 9 9 9 8 8 8 8 8 7 7 7 7 7 6 6 6 6 5 5 5 5 5 5 4 4 4 4 4 4 3 3 3 3 3 3 3 3
8 8 8 8 8 8 8 8 8 8 8 7 7 7 7 7 7 7 6 6 6 6 5 5 5 5 5 5 4 4 4 4 3 3 3 3 3 3 3 3 3 3 3 3
7 7 7 7 7 7 7 7 7 7 7 7 7 7 7 6 6 6 6 6 5 5 5 5 5 4 4 4 4 4 4 3 3 3 3 3 3 3 2 2 3 3 3 3
6 6 6 6 6 6 6 6 6 6 6 6 6 6 6 6 6 5 5 5 5 4 4 4 4 4 4 4 3 3 3 3 3 2 3 2 2 2 2 2 2 2 2 2
6 6 6 6 6 6 5 5 5 5 5 5 5 5 5 5 5 5 4 4 4 4 4 4 4 3 3 3 3 3 3 2 2 2 2 2 2 2 2 2 2 2 2 2
5 5 5 5 5 5 5 5 5 4 4 4 4 4 4 4 4 4 4 3 3 3 3 3 3 3 3 3 2 2 2 2 2 2 2 2 2 2 2 1 1 1 1 1
Wind_Speed
6 6 4 4 5 5 6 7 8 8 8 8 7 7 6 5 5 5 5 6 6 6 5 4 4 3 3 3 3 3 3 3 3 3 2 2 2 2 2 2 2 2 2 1
4 4 3 4 6 5 6 6 7 6 7 7 5 4 3 4 6 5 5 6 6 6 5 5 5 4 3 3 3 3 3 2 2 2 2 2 2 1 2 2 2 2 1 1
3 5 4 5 5 4 3 4 6 8 8 4 3 5 6 6 6 6 6 5 6 7 7 6 6 6 5 4 3 3 3 3 2 3 3 2 2 2 1 2 2 2 1 1
1 3 4 6 3 3 3 2 2 3 3 4 5 5 5 5 6 6 5 5 5 5 5 5 5 5 4 4 4 4 3 3 3 3 3 2 2 2 1 1 1 1 2 1
2 2 6 6 3 1 2 3 3 2 3 3 3 3 1 1 4 5 6 5 5 5 4 4 4 5 5 4 4 4 4 3 3 4 3 3 3 2 1 1 1 1 1 1
3 3 5 6 5 1 3 2 4 1 2 2 3 2 4 3 2 2 2 3 3 3 3 3 3 4 5 4 4 4 4 4 3 3 4 3 3 3 1 1 2 2 1 1
5 5 7 6 4 2 3 6 3 1 2 3 4 6 5 2 2 2 2 3 4 4 4 3 3 4 5 4 4 4 4 3 3 3 4 4 3 2 2 2 1 2 1 1
4 4 7 5 2 4 6 3 2 1 2 3 3 2 2 2 2 2 2 2 3 3 2 2 3 5 5 3 3 3 3 3 3 3 3 2 3 2 2 2 2 2 1 1
6 7 5 3 5 4 4 4 3 3 2 2 2 2 2 2 2 2 2 2 2 3 2 1 2 4 5 3 3 3 3 3 3 2 2 2 3 3 2 2 3 3 2 2
2 4 4 3 2 2 3 3 3 3 2 3 3 3 2 2 2 1 1 2 2 3 3 2 2 3 4 4 4 3 2 2 2 2 2 2 2 2 3 3 4 4 3 3
4 5 3 3 3 3 2 2 2 1 1 3 4 3 2 2 2 1 1 1 2 3 3 3 2 2 3 4 4 3 2 2 1 2 2 2 2 3 3 4 5 5 4 4
7 7 5 6 6 4 3 3 3 2 1 2 3 4 2 3 2 2 2 2 2 2 2 2 2 2 2 3 4 4 2 1 1 2 2 2 2 1 1 2 3 4 4 4
7 6 6 5 4 3 3 4 4 4 4 3 3 3 3 2 2 2 2 2 3 3 3 3 2 2 2 3 3 3 3 2 1 2 2 2 2 2 2 2 2 2 3 3
5 3 3 4 5 4 3 3 3 3 3 3 3 3 3 2 2 3 3 4 3 3 3 3 2 2 2 2 3 3 2 2 2 2 2 2 3 3 3 3 2 3 3 2
4 4 5 4 4 3 2 2 2 2 2 2 3 3 4 4 4 4 4 3 2 2 2 3 2 2 2 3 3 2 2 2 2 2 2 2 2 2 3 3 3 3 2 2
5 3 3 3 4 3 2 2 3 4 4 3 3 4 4 4 4 3 3 4 4 4 4 4 3 3 2 3 2 2 2 3 2 1 1 1 2 2 2 3 3 3 3 3
3 3 4 4 5 5 4 5 5 5 4 4 4 4 3 2 2 2 2 3 4 4 3 3 3 2 2 2 2 2 1 2 2 1 2 2 2 2 2 2 3 3 4 3
5 7 7 7 7 6 5 4 4 5 5 4 4 3 4 4 4 4 3 2 2 1 1 2 3 3 2 2 2 2 2 1 1 2 2 2 3 2 2 2 3 3 3 3
2 4 4 5 6 6 5 5 5 5 4 4 5 5 5 4 4 4 3 4 4 3 3 3 3 3 2 2 2 2 2 2 2 2 2 3 2 2 2 2 2 3 3 3
2 2 1 1 2 3 3 3 3 3 4 4 4 4 4 4 4 4 4 4 4 4 4 3 3 3 2 3 2 2 2 2 2 2 2 2 2 2 2 2 2 3 3 3
1 1 1 1 0 1 1 2 2 3 3 4 5 5 4 4 4 4 4 3 3 3 3 4 3 3 2 3 2 2 2 2 2 2 2 2 2 2 2 3 3 3 3 3
2 1 1 1 1 1 2 1 1 2 2 2 3 3 3 3 2 2 3 3 3 3 2 2 3 3 3 2 2 2 2 3 3 2 3 2 2 3 3 3 3 3 3 3
2 2 2 2 1 1 2 1 1 1 2 2 2 3 3 3 3 3 3 2 3 4 2 3 4 5 4 2 2 2 3 3 3 3 3 3 3 3 3 3 3 3 3 3
2 2 2 2 1 2 2 3 2 1 1 1 2 2 2 2 1 2 2 4 4 3 2 4 5 4 2 1 2 2 3 3 3 3 3 3 3 3 3 3 3 3 3 4
2 2 2 1 1 2 2 2 2 2 1 1 1 1 1 2 2 2 2 3 3 2 2 3 3 3 1 1 2 2 2 3 3 3 3 3 3 3 3 3 3 4 4 4
2 2 2 3 2 2 2 1 1 1 1 1 1 1 1 1 2 2 2 2 2 2 1 1 2 2 1 2 2 2 3 3 3 3 3 3 3 3 4 4 4 4 4 4
2 2 1 2 2 1 1 1 1 2 2 2 2 2 2 1 2 2 2 2 2 1 1 1 1 2 2 2 2 3 3 3 3 3 3 3 3 3 4 4 4 4 4 4
Wind_Direction
239 239 229 248 259 245 214 200 202 220 217 230 219 201 197 184 167 155 170 174 176 183 188 181 173 183 186 190 180 167 155 162 185 193 183 173 167 168 162 160 167 178 161 167
301 280 282 276 267 252 231 219 211 211 234 229 208 169 167 171 161 169 188 190 188 186 186 188 184 185 182 187 186 156 153 172 176 162 155 154 159 151 150 152 157 144 158 167
282 304 335 283 257 229 216 214 200 220 229 199 153 168 182 185 176 186 191 189 188 191 192 193 191 185 186 188 172 153 159 165 164 162 158 168 163 129 160 179 163 154 190 195
258 345 252 248 259 200 185 260 252 207 196 183 174 175 179 176 174 186 190 190 195 192 190 192 191 183 176 164 157 162 168 176 178 164 168 172 163 174 210 199 179 195 220 228
164 248 277 291 287 222 173 297 301 165 159 157 143 89 19 195 167 182 189 187 190 190 184 179 181 177 160 160 162 164 174 183 189 175 166 169 179 204 212 176 191 216 228 224
164 207 242 255 270 268 104 284 292 171 177 179 128 141 250 240 181 167 164 166 164 155 142 152 174 163 155 168 172 188 195 191 186 179 176 186 198 202 193 176 197 190 222 238
192 223 256 263 277 66 164 238 260 219 183 168 185 207 216 192 166 165 156 156 150 146 155 174 170 150 152 170 194 204 189 175 173 184 196 203 201 199 187 182 191 199 212 244
173 199 251 262 151 177 213 223 211 182 165 161 192 200 162 137 135 131 129 139 146 151 167 172 159 149 154 186 206 181 169 173 192 205 214 207 192 204 195 181 193 215 217 263
195 215 244 236 203 208 176 180 196 181 193 152 144 153 141 144 149 145 149 155 150 153 159 168 168 159 166 193 174 157 165 184 201 211 218 205 194 200 198 198 209 219 218 235
258 272 282 278 239 210 184 187 203 182 166 143 155 162 150 151 151 145 151 158 147 145 161 200 205 173 179 183 166 153 172 202 198 195 221 219 202 201 201 210 213 218 223 230
259 276 305 292 257 231 205 177 162 158 171 169 160 166 174 173 181 177 181 189 167 172 187 210 207 197 184 174 156 153 170 199 224 219 218 221 222 218 220 224 212 210 219 218
238 241 229 255 254 226 193 195 189 181 191 179 171 179 188 195 199 187 187 192 183 187 190 205 202 183 171 160 153 152 163 188 213 225 225 212 216 261 271 240 241 227 221 216
233 244 232 238 252 236 204 199 197 194 188 180 180 182 187 208 223 207 198 193 199 204 199 198 190 190 189 164 152 155 172 196 209 208 217 221 221 220 260 311 320 280 254 237
234 233 238 238 239 238 222 208 190 177 178 177 184 188 187 199 210 215 215 210 204 196 196 190 178 199 203 163 151 163 185 199 196 213 229 232 229 223 218 226 259 285 287 266
250 230 227 236 228 215 197 173 173 203 207 215 203 197 193 198 210 223 224 202 171 171 190 180 178 213 205 159 152 169 189 201 211 224 239 243 237 230 226 230 237 251 273 288
253 263 236 219 212 203 201 214 221 224 221 222 219 214 209 205 208 210 205 185 175 189 197 186 197 214 191 163 163 181 202 210 219 231 255 260 245 238 234 231 228 234 242 247
225 237 230 229 223 223 223 231 227 222 218 220 222 215 202 190 196 205 214 206 190 193 196 194 205 209 186 175 177 192 207 222 231 252 258 260 256 244 233 222 220 232 242 240
221 221 220 217 220 223 226 224 221 219 220 224 212 199 194 197 204 211 212 189 154 160 217 201 188 182 184 187 183 187 199 223 228 240 256 264 262 245 232 226 226 237 252 249
266 249 237 226 216 204 209 217 220 221 220 204 196 202 210 212 208 206 187 165 169 195 231 217 184 168 176 206 195 184 195 215 237 254 257 258 264 259 253 248 244 237 237 231
334 310 292 244 216 204 207 217 225 224 219 203 193 197 211 220 210 197 182 189 205 212 209 201 182 178 191 208 203 187 202 217 231 245 250 250 254 265 267 263 259 246 240 235
355 9 26 35 335 261 227 222 213 222 225 201 188 197 208 218 205 187 177 208 245 213 191 192 183 188 196 206 210 199 211 222 230 239 241 246 256 266 271 274 272 260 245 247
334 340 348 344 348 310 301 276 205 192 197 206 204 200 195 201 203 198 206 208 212 204 186 189 201 214 217 220 200 206 213 221 229 233 239 242 248 258 265 270 272 271 256 250
332 320 326 331 318 311 336 340 283 194 189 197 207 212 211 211 196 185 221 235 203 199 192 206 219 224 229 213 202 209 216 227 235 238 238 239 243 247 254 263 267 272 266 259
333 328 317 325 8 24 340 311 300 286 271 264 244 228 213 205 234 232 208 203 201 206 205 218 223 229 232 203 211 216 226 237 244 244 241 240 241 245 250 258 267 271 270 268
297 304 306 307 308 283 279 296 316 325 320 300 283 269 233 197 199 212 193 191 202 209 216 225 230 240 228 217 225 231 239 246 250 244 234 240 247 249 252 255 260 265 270 268
274 274 277 264 251 250 257 260 269 276 256 257 280 271 252 203 180 176 175 186 201 220 228 235 236 235 220 222 236 240 244 260 275 267 241 241 245 247 250 254 260 264 267 269
286 290 304 321 311 280 254 239 247 261 252 237 243 243 220 205 196 187 185 190 202 210 222 235 240 240 236 237 243 249 252 256 259 255 243 243 246 250 253 255 258 262 264 266
Height
1504 1500 1499 1499 1498 1496 1500 1503 1510 1506 1503 1498 1494 1494 1494 1494 1496 1497 1498 1499 1499 1500 1501 1502 1503 1504 1505 1505 1506 1506 1507 1507 1507 1508 1509 1510 1510 1510 1511 1511 1512 1512 1513 1513
1504 1498 1497 1497 1494 1493 1494 1495 1497 1497 1498 1490 1490 1491 1492 1493 1493 1495 1496 1496 1497 1498 1499 1499 1500 1501 1502 1502 1503 1503 1504 1504 1505 1506 1506 1507 1507 1507 1508 1508 1509 1509 1509 1510
1513 1504 1500 1502 1493 1491 1491 1489 1491 1494 1491 1487 1489 1489 1490 1491 1491 1492 1493 1493 1494 1495 1496 1496 1497 1498 1498 1499 1500 1501 1501 1502 1502 1503 1503 1504 1504 1505 1505 1505 1506 1506 1506 1506
1514 1510 1511 1498 1486 1485 1487 1487 1486 1485 1484 1484 1485 1487 1487 1488 1489 1489 1490 1491 1492 1492 1493 1494 1495 1496 1496 1497 1497 1498 1498 1499 1500 1500 1500 1501 1501 1502 1502 1502 1503 1503 1503 1503
1515 1515 1508 1494 1486 1485 1487 1489 1485 1484 1484 1484 1484 1485 1487 1487 1487 1487 1488 1489 1489 1490 1491 1491 1492 1493 1493 1494 1494 1495 1495 1496 1496 1497 1497 1498 1498 1499 1499 1499 1499 1500 1500 1500
1513 1513 1510 1494 1483 1481 1485 1492 1485 1483 1483 1483 1484 1489 1487 1485 1485 1485 1486 1487 1487 1488 1488 1489 1489 1490 1490 1491 1491 1491 1492 1492 1493 1494 1494 1495 1495 1495 1496 1496 1496 1496 1496 1496
1510 1511 1501 1487 1482 1483 1495 1492 1483 1482 1481 1482 1482 1483 1483 1483 1483 1483 1484 1485 1485 1485 1486 1486 1486 1487 1487 1488 1488 1488 1489 1490 1490 1491 1491 1492 1492 1492 1492 1493 1493 1493 1493 1493
1507 1509 1502 1483 1482 1485 1485 1481 1481 1480 1480 1480 1480 1480 1480 1480 1480 1481 1481 1482 1482 1483 1483 1483 1484 1484 1484 1485 1485 1486 1486 1487 1487 1487 1488 1488 1489 1489 1489 1489 1489 1489 1489 1489
1495 1493 1483 1480 1479 1478 1479 1479 1479 1479 1479 1479 1479 1478 1478 1478 1479 1479 1479 1480 1480 1480 1480 1481 1481 1481 1481 1482 1483 1483 1483 1483 1483 1484 1484 1485 1485 1485 1485 1485 1485 1485 1485 1485
1488 1484 1481 1479 1478 1477 1477 1477 1477 1477 1477 1477 1477 1476 1476 1476 1477 1477 1477 1477 1477 1477 1477 1477 1478 1478 1478 1479 1480 1480 1480 1480 1480 1481 1481 1481 1481 1481 1481 1481 1482 1482 1481 1481
1486 1481 1479 1477 1476 1476 1475 1475 1475 1475 1475 1474 1474 1474 1474 1474 1474 1474 1475 1474 1474 1474 1474 1474 1474 1474 1475 1476 1476 1477 1477 1477 1477 1478 1478 1478 1478 1478 1478 1478 1478 1478 1478 1478
1481 1477 1477 1475 1474 1473 1473 1472 1472 1472 1472 1472 1472 1472 1472 1472 1472 1472 1472 1472 1471 1471 1471 1471 1471 1471 1472 1473 1473 1474 1474 1474 1474 1474 1474 1474 1474 1474 1475 1475 1475 1475 1475 1475
1473 1472 1472 1471 1471 1471 1470 1470 1470 1470 1469 1469 1470 1470 1469 1469 1469 1469 1469 1469 1468 1468 1468 1468 1468 1469 1469 1470 1471 1471 1471 1471 1471 1471 1471 1471 1471 1471 1470 1471 1471 1471 1471 1471
1469 1469 1468 1468 1468 1468 1468 1468 1468 1467 1467 1467 1467 1467 1467 1466 1466 1466 1466 1465 1465 1465 1465 1466 1466 1466 1467 1467 1468 1468 1468 1468 1468 1468 1468 1468 1468 1467 1467 1467 1467 1466 1467 1467
1465 1465 1465 1465 1465 1465 1465 1465 1465 1465 1465 1464 1464 1464 1463 1463 1463 1463 1462 1462 1462 1462 1462 1463 1463 1463 1464 1464 1465 1465 1465 1465 1465 1465 1465 1465 1464 1464 1463 1463 1463 1462 1463 1463
1461 1461 1461 1461 1461 1462 1462 1462 1462 1461 1461 1461 1461 1460 1460 1460 1460 1459 1459 1459 1458 1458 1459 1459 1460 1460 1461 1461 1461 1462 1462 1462 1462 1462 1461 1461 1460 1460 1459 1459 1458 1458 1459 1459
1458 1457 1458 1458 1458 1458 1458 1458 1458 1458 1458 1458 1457 1457 1457 1457 1456 1456 1456 1456 1456 1456 1456 1456 1457 1457 1458 1458 1459 1459 1459 1459 1459 1458 1457 1457 1456 1455 1455 1455 1455 1455 1455 1455
1454 1454 1454 1454 1454 1454 1455 1455 1455 1455 1455 1454 1454 1454 1454 1453 1453 1452 1453 1453 1453 1454 1454 1454 1454 1455 1455 1456 1456 1456 1456 1456 1455 1454 1454 1453 1452 1452 1451 1451 1451 1451 1451 1451
1451 1451 1450 1450 1450 1451 1451 1451 1451 1451 1451 1451 1451 1450 1450 1450 1450 1450 1450 1450 1450 1450 1451 1452 1452 1453 1453 1453 1453 1453 1453 1452 1452 1451 1450 1449 1448 1447 1447 1447 1447 1447 1446 1446
1448 1448 1448 1447 1447 1448 1448 1448 1448 1448 1448 1447 1447 1447 1447 1447 1447 1448 1447 1447 1448 1448 1448 1449 1449 1449 1449 1449 1449 1449 1449 1448 1448 1447 1446 1445 1445 1444 1443 1443 1442 1442 1442 1442
1447 1446 1446 1445 1445 1445 1445 1445 1445 1444 1444 1444 1444 1444 1444 1444 1444 1444 1444 1444 1445 1445 1446 1446 1446 1446 1446 1445 1445 1445 1445 1444 1444 1443 1442 1441 1441 1440 1439 1439 1438 1438 1438 1437
1446 1445 1444 1444 1443 1443 1443 1442 1442 1441 1441 1441 1441 1441 1441 1441 1441 1442 1442 1442 1442 1442 1442 1442 1442 1442 1442 1442 1441 1441 1441 1440 1440 1439 1438 1438 1437 1436 1436 1435 1434 1434 1433 1433
1445 1444 1443 1442 1441 1441 1440 1440 1439 1438 1438 1438 1438 1438 1438 1438 1438 1438 1438 1439 1439 1439 1439 1439 1439 1438 1438 1438 1438 1437 1437 1436 1436 1435 1435 1434 1433 1433 1432 1431 1430 1430 1429 1428
1443 1442 1441 1440 1439 1438 1437 1437 1436 1436 1435 1435 1435 1435 1435 1435 1435 1436 1436 1436 1436 1436 1435 1435 1435 1435 1434 1434 1434 1433 1433 1432 1432 1431 1431 1430 1429 1429 1428 1427 1426 1426 1425 1424
1440 1439 1439 1438 1437 1436 1435 1434 1434 1433 1433 1433 1433 1433 1433 1432 1432 1432 1432 1432 1432 1432 1432 1431 1431 1431 1431 1430 1430 1430 1429 1428 1428 1427 1426 1426 1425 1425 1424 1423 1422 1421 1421 1420
1437 1436 1436 1435 1434 1433 1433 1432 1431 1431 1430 1430 1429 1430 1429 1429 1429 1429 1428 1428 1428 1428 1428 1427 1427 1427 1427 1427 1426 1426 1425 1424 1424 1423 1422 1421 1421 1420 1420 1419 1418 1417 1416 1416
1434 1433 1432 1431 1431 1431 1430 1429 1428 1428 1427 1427 1426 1426 1426 1426 1425 1425 1425 1424 1424 1424 1424 1423 1423 1423 1423 1422 1422 1421 1421 1420 1419 1418 1417 1417 1417 1416 1415 1414 1413 1413 1412 1411